Location: Unspecified
(0.0000°N, 0.0000°E)
Time: 22:41:10
(UTC+00:00)

N. Korean satellite - Pass Details

Date: 18 April 2018
Orbit: 458 x 513 km, 97.2° (Epoch: 23 April)

Event Time Altitude Azimuth Distance (km) Brightness Sun altitude
Rises 18:26:02 0° 178° (S) 2,623 10.1 -6.6°
Reaches altitude 10° 18:28:11 10° 183° (S) 1,736 9.3 -7.1°
Maximum altitude 18:31:49 49° 259° (W) 664 7.7 -8.0°
Drops below altitude 10° 18:35:25 10° 335° (NNW) 1,724 9.9 -8.9°
Sets 18:37:33 0° 340° (NNW) 2,602 10.7 -9.4°
